• In Uzbekistan
  • List of Countries
  • For 7 days
  • Water Temperature
  • Satellite Maps
  • Weather Map
  • Weather Widgets
  • user-avatar
    Login

    Hourly Weather Yerevan

    Today, 17 January, Tuesday

    Time Temperature Precipitation Wind Pressure Humidity
    00:00 -7°C° 0 mm 1 mps 691 mmHg 87%
    01:00 -6°C° 0 mm 1 mps 691 mmHg 86%
    02:00 -6°C° 0 mm 1 mps 691 mmHg 86%
    03:00 -6°C° 0 mm 1 mps 691 mmHg 85%
    04:00 -4°C° 0 mm 1 mps 691 mmHg 85%
    05:00 -4°C° 0 mm 1 mps 691 mmHg 84%
    06:00 -4°C° 0 mm 1 mps 691 mmHg 84%
    07:00 -2°C° 0 mm 1 mps 692 mmHg 82%
    08:00 -1°C° 0 mm 1 mps 692 mmHg 80%
    09:00 +1°C° 0 mm 1 mps 693 mmHg 78%
    10:00 +3°C° 0 mm 1 mps 693 mmHg 77%
    11:00 +4°C° 0 mm 1 mps 693 mmHg 76%
    12:00 +6°C° 0 mm 1 mps 692 mmHg 74%
    13:00 +6°C° 0 mm 1 mps 692 mmHg 76%
    14:00 +6°C° 0 mm 1 mps 692 mmHg 77%
    15:00 +6°C° 0 mm 1 mps 691 mmHg 79%
    16:00 +3°C° 0 mm 1 mps 691 mmHg 82%
    17:00 -1°C° 0 mm 1 mps 690 mmHg 84%
    18:00 -4°C° 0 mm 1 mps 690 mmHg 87%
    19:00 -4°C° 0 mm 1 mps 690 mmHg 87%
    20:00 -4°C° 0 mm 1 mps 690 mmHg 86%
    21:00 -4°C° 0 mm 1 mps 690 mmHg 86%
    22:00 -4°C° 0 mm 1 mps 690 mmHg 85%
    23:00 -4°C° 0 mm 1 mps 690 mmHg 85%

    Tomorrow, 18 January, Wednesday

    Time Temperature Precipitation Wind Pressure Humidity
    00:00 -6°C° 0 mm 1 mps 690 mmHg 85%
    01:00 -6°C° 0 mm 1 mps 690 mmHg 85%
    02:00 -4°C° 0 mm 1 mps 690 mmHg 85%
    03:00 -4°C° 0 mm 1 mps 690 mmHg 84%
    04:00 -4°C° 0 mm 1 mps 690 mmHg 84%
    05:00 -4°C° 0 mm 1 mps 690 mmHg 83%
    06:00 -3°C° 0 mm 1 mps 690 mmHg 83%
    07:00 -1°C° 0 mm 1 mps 691 mmHg 81%
    08:00 +1°C° 0 mm 1 mps 691 mmHg 79%
    09:00 +3°C° 0 mm 1 mps 692 mmHg 77%
    10:00 +4°C° 0 mm 1 mps 691 mmHg 76%
    11:00 +5°C° 0 mm 1 mps 691 mmHg 75%
    12:00 +7°C° 0 mm 1 mps 691 mmHg 73%
    13:00 +6°C° 0 mm 1 mps 691 mmHg 75%
    14:00 +6°C° 0 mm 1 mps 691 mmHg 76%
    15:00 +6°C° 0 mm 1 mps 690 mmHg 78%
    16:00 +4°C° 0 mm 1 mps 690 mmHg 80%
    17:00 +1°C° 0 mm 1 mps 690 mmHg 82%
    18:00 -1°C° 0 mm 1 mps 690 mmHg 85%
    19:00 -2°C° 0 mm 1 mps 690 mmHg 84%
    20:00 -2°C° 0 mm 1 mps 690 mmHg 83%
    21:00 -2°C° 0 mm 1 mps 690 mmHg 82%
    22:00 -3°C° 0 mm 1 mps 690 mmHg 82%
    23:00 -3°C° 0 mm 1 mps 690 mmHg 81%

    Day after tomorrow, 19 January, Thursday

    Time Temperature Precipitation Wind Pressure Humidity
    00:00 -4°C° 0 mm 1 mps 690 mmHg 80%
    01:00 -4°C° 0 mm 1 mps 690 mmHg 80%
    02:00 -4°C° 0 mm 1 mps 690 mmHg 79%
    03:00 -6°C° 0 mm 1 mps 690 mmHg 79%
    04:00 -6°C° 0 mm 1 mps 690 mmHg 78%
    05:00 -6°C° 0 mm 1 mps 690 mmHg 78%
    06:00 -6°C° 0 mm 1 mps 690 mmHg 77%
    07:00 -3°C° 0 mm 1 mps 691 mmHg 76%
    08:00 -1°C° 0 mm 1 mps 692 mmHg 75%
    09:00 +2°C° 0 mm 1 mps 693 mmHg 73%
    10:00 +3°C° 0 mm 1 mps 693 mmHg 72%
    11:00 +5°C° 0 mm 1 mps 692 mmHg 71%
    12:00 +6°C° 0 mm 1 mps 692 mmHg 70%
    13:00 +6°C° 0 mm 1 mps 692 mmHg 72%
    14:00 +6°C° 0 mm 1 mps 692 mmHg 74%
    15:00 +6°C° 0 mm 1 mps 691 mmHg 76%
    16:00 +3°C° 0 mm 1 mps 691 mmHg 80%
    17:00 -1°C° 0 mm 1 mps 690 mmHg 83%
    18:00 -4°C° 0 mm 1 mps 690 mmHg 86%
    19:00 -4°C° 0 mm 1 mps 690 mmHg 85%
    20:00 -4°C° 0 mm 1 mps 690 mmHg 84%
    21:00 -4°C° 0 mm 1 mps 691 mmHg 83%
    22:00 -4°C° 0 mm 1 mps 691 mmHg 83%
    23:00 -6°C° 0 mm 1 mps 691 mmHg 83%

    20 January, Friday

    Time Temperature Precipitation Wind Pressure Humidity
    00:00 -6°C° 0 mm 1 mps 691 mmHg 83%
    01:00 -6°C° 0 mm 0 mps 691 mmHg 83%
    02:00 -6°C° 0 mm 0 mps 691 mmHg 83%
    03:00 -6°C° 0 mm 0 mps 691 mmHg 83%
    04:00 -6°C° 0 mm 0 mps 691 mmHg 83%
    05:00 -6°C° 0 mm 0 mps 691 mmHg 83%
    06:00 -6°C° 0 mm 0 mps 691 mmHg 83%
    07:00 -4°C° 0 mm 0 mps 692 mmHg 81%
    08:00 -2°C° 0 mm 0 mps 693 mmHg 79%
    09:00 0°C° 0 mm 0 mps 694 mmHg 78%
    10:00 +2°C° 0 mm 0 mps 694 mmHg 75%
    11:00 +4°C° 0 mm 1 mps 694 mmHg 73%
    12:00 +5°C° 0 mm 1 mps 694 mmHg 71%
    13:00 +5°C° 0.1 mm 1 mps 693 mmHg 73%
    14:00 +5°C° 0.1 mm 1 mps 693 mmHg 74%
    15:00 +5°C° 0.1 mm 1 mps 693 mmHg 76%
    16:00 +1°C° 0.1 mm 0 mps 692 mmHg 80%
    17:00 -1°C° 0.1 mm 0 mps 692 mmHg 84%
    18:00 -3°C° 0.1 mm 0 mps 692 mmHg 88%
    19:00 -4°C° 0.1 mm 0 mps 692 mmHg 87%
    20:00 -4°C° 0.1 mm 0 mps 692 mmHg 87%
    21:00 -4°C° 0.1 mm 0 mps 692 mmHg 87%
    22:00 -5°C° 0 mm 0 mps 692 mmHg 87%
    23:00 -5°C° 0 mm 0 mps 692 mmHg 87%

    21 January, Saturday

    Time Temperature Precipitation Wind Pressure Humidity
    00:00 -5°C° 0 mm 0 mps 692 mmHg 86%
    01:00 -5°C° 0 mm 0 mps 692 mmHg 86%
    02:00 -6°C° 0 mm 0 mps 692 mmHg 86%
    03:00 -6°C° 0 mm 0 mps 692 mmHg 86%
    04:00 -7°C° 0 mm 0 mps 692 mmHg 86%
    05:00 -7°C° 0 mm 0 mps 692 mmHg 86%
    06:00 -8°C° 0 mm 0 mps 692 mmHg 86%
    07:00 -5°C° 0 mm 0 mps 692 mmHg 83%
    08:00 -3°C° 0 mm 0 mps 693 mmHg 81%
    09:00 -1°C° 0 mm 0 mps 694 mmHg 78%
    10:00 0°C° 0 mm 0 mps 694 mmHg 75%
    11:00 +1°C° 0 mm 0 mps 693 mmHg 72%
    12:00 +3°C° 0 mm 0 mps 693 mmHg 69%
    13:00 +4°C° 0 mm 1 mps 693 mmHg 71%
    14:00 +4°C° 0 mm 1 mps 692 mmHg 72%
    15:00 +4°C° 0 mm 1 mps 692 mmHg 73%
    16:00 0°C° 0 mm 0 mps 692 mmHg 78%
    17:00 -3°C° 0 mm 0 mps 691 mmHg 82%
    18:00 -6°C° 0 mm 0 mps 691 mmHg 86%
    19:00 -7°C° 0 mm 0 mps 691 mmHg 86%
    20:00 -7°C° 0 mm 0 mps 691 mmHg 85%
    21:00 -7°C° 0 mm 0 mps 692 mmHg 84%
    22:00 -7°C° 0 mm 1 mps 692 mmHg 84%
    23:00 -6°C° 0 mm 1 mps 692 mmHg 83%

    22 January, Sunday

    Time Temperature Precipitation Wind Pressure Humidity
    00:00 -6°C° 0 mm 1 mps 693 mmHg 83%
    01:00 -4°C° 0 mm 1 mps 693 mmHg 82%
    02:00 -4°C° 0 mm 1 mps 694 mmHg 82%
    03:00 -3°C° 0 mm 1 mps 694 mmHg 82%
    04:00 -3°C° 0 mm 1 mps 694 mmHg 82%
    05:00 -4°C° 0 mm 1 mps 695 mmHg 82%
    06:00 -4°C° 0 mm 1 mps 695 mmHg 82%
    07:00 -3°C° 0 mm 1 mps 696 mmHg 80%
    08:00 -2°C° 0 mm 1 mps 696 mmHg 78%
    09:00 0°C° 0 mm 1 mps 697 mmHg 76%
    10:00 +1°C° 0 mm 1 mps 697 mmHg 74%
    11:00 +2°C° 0 mm 1 mps 697 mmHg 71%
    12:00 +3°C° 0 mm 1 mps 697 mmHg 69%
    13:00 +3°C° 0 mm 1 mps 697 mmHg 70%
    14:00 +3°C° 0 mm 1 mps 697 mmHg 71%
    15:00 +3°C° 0 mm 1 mps 696 mmHg 72%
    16:00 +1°C° 0 mm 1 mps 697 mmHg 76%
    17:00 -1°C° 0 mm 1 mps 697 mmHg 79%
    18:00 -3°C° 0 mm 1 mps 697 mmHg 83%
    19:00 -3°C° 0 mm 1 mps 697 mmHg 83%
    20:00 -3°C° 0 mm 1 mps 698 mmHg 83%
    21:00 -4°C° 0 mm 1 mps 698 mmHg 83%
    22:00 -4°C° 0 mm 1 mps 698 mmHg 83%
    23:00 -4°C° 0 mm 1 mps 699 mmHg 83%
    Show more